SCP
0 0 0 0 0 0 0 0 0 0 0 0 0 0 0 0 0 0 0 0 0 0 0 0 0 0 0 0 0 0 0 0 0 0 0 0 0 0 0 0 0 0 0
0 0 0 0 0 0 0 0 0 0 0 0 0 0 0 0 0 0 0 0 0 0 0 0 0 0 0 0 0 0 0 0 0 0 0 0 0 0 0 0 0 0 0
0 0 0 0 0 0 0 0 0 0 0 0 0 0 0 0 0 0 0 0 0 0 0 0 0 0 0 0 0 0 0 0 0 0 0 0 0 0 0 0 0 0 0
0 0 0 0 0 0 0 0 0 0 0 0 0 0 0 0 0 0 0 0 0 0 0 0 0 0 0 0 0 0 0 0 0 0 0 0 0 0 0 0 0 0 0
0 0 0 0 0 0 0 0 0 0 0 0 0 0 0 0 0 0 0 0 0 0 0 0 0 0 0 0 0 0 0 0 0 0 0 0 0 0 0 0 0 0 0
0 0 0 0 0 0 0 0 0 0 0 0 0 0 0 0 0 0 0 0 0 0 0 0 0 0 0 0 0 0 0 0 0 0 0 0 0 0 0 0 0 0 0
0 0 0 0 0 0 0 0 0 0 0 0 0 0 0 0 0 0 0 0 0 0 0 0 0 0 0 0 0 0 0 0 0 0 0 0 0 0 0 0 0 0 0
0 0 0 0 0 0 0 0 0 0 0 0 0 0 0 0 0 0 0 0 0 0 0 0 0 0 0 0 0 0 0 0 0 0 0 0 0 0 0 0 0 0 0
0 0 0 0 0 0 0 0 0 0 0 0 0 0 0 0 0 0 0 0 0 0 0 0 0 0 0 0 0 0 0 0 0 0 0 0 0 0 0 0 0 0 0
0 0 0 0 0 0 0 0 0 0 0 0 0 0 0 0 0 0 0 0 0 0 0 0 0 0 0 0 0 0 0 0 0 0 0 0 0 0 0 0 0 0 0
0 0 0 0 0 0 0 0 0 0 0 0 0 0 0 0 0 0 0 0 0 0 0 0 0 0 0 0 0 0 0 0 0 0 0 0 0 0 0 0 0 0 0
0 0 0 0 0 0 0 0 0 0 0 0 0 0 0 0 0 0 0 0 0 0 0 0 0 0 0 0 0 0 0 0 0 0 0 0 0 0 0 0 0 0 0
0 0 0 0 0 0 0 0 0 0 0 0 0 0 0 0 0 0 0 0 0 0 0 0 0 0 0 0 0 0 0 0 0 0 0 0 0 0 0 0 0 0 0
0 0 0 0 0 0 0 0 0 0 0 0 0 0 0 0 0 0 0 0 0 0 0 0 0 0 0 0 0 0 0 0 0 0 0 0 0 0 0 0 0 0 0
0 0 0 0 0 0 0 0 0 0 0 0 0 0 0 0 0 0 0 0 0 0 0 0 0 0 0 0 0 0 0 0 0 0 0 0 0 0 0 0 0 0 0
0 0 0 0 0 0 0 0 0 0 0 0 0 0 0 0 0 0 0 0 0 0 0 0 0 0 0 0 0 0 0 0 0 0 0 0 0 0 0 0 0 0 0
0 0 0 0 0 0 0 0 0 0 0 0 0 0 0 0 0 0 0 0 0 0 0 0 0 0 0 0 0 0 0 0 0 0 0 0 0 0 0 0 0 0 0
0 0 0 0 0 0 0 0 0 0 0 0 0 0 0 0 0 0 0 0 0 0 0 0 0 0 0 0 0 0 0 0 0 0 0 0 0 0 0 0 0 0 0
0 0 0 0 0 0 0 0 1 1 1 0 0 0 0 0 0 0 0 0 0 0 0 0 0 0 0 0 0 0 0 0 0 0 0 0 0 0 0 0 0 0 0
0 0 0 0 0 0 0 0 1 1 1 1 1 1 1 0 0 0 0 0 0 0 0 0 0 0 0 0 0 0 0 0 0 0 0 0 0 0 0 0 0 0 0
0 0 0 0 0 0 0 0 0 1 1 1 1 1 1 1 1 0 0 0 0 0 0 0 0 0 0 0 0 0 0 0 0 0 0 0 0 0 0 0 0 0 0
0 0 0 0 0 0 0 0 0 0 1 1 1 1 1 1 1 0 0 0 0 0 0 0 0 0 0 0 0 0 0 0 0 0 0 0 0 0 0 0 0 0 0
0 0 0 0 0 0 0 0 0 0 0 0 1 1 1 1 1 0 0 0 0 0 0 0 0 0 0 0 0 0 0 0 0 0 0 0 0 0 0 0 0 0 0
0 0 0 0 0 0 0 0 0 0 0 0 0 0 0 0 0 0 0 0 0 0 0 0 0 0 0 0 0 0 0 0 0 0 0 0 0 0 0 0 0 0 0
0 0 0 0 0 0 0 0 0 0 0 0 0 0 0 0 0 0 0 0 0 0 0 0 0 0 0 0 0 0 0 0 0 0 0 0 0 0 0 0 0 0 0
0 0 0 0 0 0 0 0 0 0 0 0 0 0 0 0 0 0 0 0 0 0 0 0 0 0 0 0 0 0 0 0 0 0 0 0 0 0 0 0 0 0 0
Wind_Speed
3 3 2 2 2 2 2 2 2 3 3 3 3 4 4 4 3 3 2 6 8 9 10 11 11 10 9 9 9 9 9 9 9 9 9 9 9 9 8 9 8 8 7
3 3 3 2 2 2 3 3 3 3 3 2 3 4 4 4 4 4 3 4 8 9 10 11 11 11 10 9 9 8 8 8 8 8 8 8 9 9 8 8 8 8 8
3 3 3 2 2 2 2 2 2 2 2 3 3 4 3 4 4 4 4 3 4 7 9 10 10 10 10 9 9 9 8 8 7 7 7 8 7 8 8 8 9 9 8
4 3 2 2 2 2 2 2 1 1 2 2 2 3 3 3 3 4 3 3 3 4 6 9 9 9 10 9 9 8 8 8 7 7 7 8 8 8 7 8 8 8 8
4 3 2 2 2 2 1 2 1 2 2 2 2 2 2 3 3 3 4 4 4 4 4 6 9 10 9 9 9 8 8 8 7 7 7 8 8 8 8 8 8 8 9
3 2 2 2 2 2 1 1 1 1 1 2 2 1 1 2 2 3 4 4 4 5 5 5 4 6 9 9 9 8 8 8 7 7 7 7 7 7 8 8 7 8 9
3 3 2 2 2 2 2 2 1 1 1 1 1 1 2 2 2 3 3 3 4 4 4 5 4 3 3 8 9 8 8 8 8 7 7 7 7 7 8 8 8 7 8
2 3 3 2 2 2 2 2 2 1 1 1 2 1 2 3 2 2 1 3 4 3 4 4 4 4 3 3 5 9 9 8 8 8 7 7 7 7 7 8 8 8 8
2 2 3 2 2 2 2 2 2 2 1 1 1 2 2 2 2 2 1 1 2 2 3 3 4 4 5 3 4 6 8 7 8 8 8 7 7 7 7 8 8 8 8
2 2 2 2 2 2 2 3 2 2 2 1 1 1 2 3 2 1 2 1 0 2 2 3 3 4 4 4 4 7 8 7 7 7 8 8 7 7 8 9 8 8 8
1 2 2 2 2 2 2 2 1 2 2 2 2 1 0 1 1 2 1 1 1 1 1 2 2 3 4 4 4 5 7 8 8 7 7 7 7 7 7 8 8 9 8
1 1 2 2 2 1 1 1 1 2 2 2 2 1 2 1 1 2 2 1 1 1 1 1 2 3 3 4 5 7 7 7 8 8 8 8 7 7 7 7 8 8 8
1 2 1 1 1 2 2 2 2 2 2 2 2 2 2 2 2 2 2 1 1 1 1 1 2 2 3 3 4 7 6 7 7 8 8 7 7 6 6 6 6 7 7
2 2 2 2 2 2 2 2 2 2 1 2 2 2 2 2 2 2 3 2 0 1 1 2 1 2 2 3 4 6 4 6 7 7 7 7 6 6 5 5 5 5 5
1 1 2 1 2 2 1 2 1 2 1 2 2 2 2 1 2 2 2 3 3 2 2 2 2 2 2 2 4 3 3 5 6 7 6 6 6 6 5 5 5 4 4
1 2 2 1 1 1 1 2 1 1 1 2 2 1 1 1 1 1 2 2 2 3 2 2 3 2 2 2 4 3 3 5 6 6 6 6 6 6 6 5 5 4 4
1 2 2 2 2 2 2 2 2 2 2 2 2 2 2 2 1 1 1 1 2 2 2 3 2 1 2 2 1 2 2 2 3 6 7 7 7 6 6 6 5 5 4
1 2 1 1 2 2 2 2 3 2 3 3 2 2 2 1 1 1 1 2 2 2 3 3 2 1 2 2 2 2 2 2 2 5 6 6 7 7 7 6 6 5 5
1 1 1 1 2 2 2 3 3 3 3 3 3 3 3 3 2 2 2 2 2 2 2 3 3 2 1 1 1 2 2 2 3 3 4 5 6 6 7 7 6 6 6
2 2 2 2 2 2 2 2 3 3 3 3 3 4 4 4 4 3 3 3 3 2 2 2 2 2 2 1 1 1 2 2 2 2 3 3 4 5 5 5 6 6 6
3 3 3 2 2 2 2 2 2 3 3 4 3 4 4 5 5 4 3 3 3 2 2 2 2 1 2 1 2 2 2 2 2 2 1 2 2 2 3 5 6 6 6
3 2 3 3 3 3 3 4 3 3 3 4 4 4 4 4 4 5 5 5 5 4 4 3 3 3 4 3 3 3 2 1 2 2 2 2 2 3 3 3 6 7 7
3 3 3 3 3 4 5 4 4 3 3 4 4 4 4 3 3 3 4 5 5 6 6 5 5 5 5 5 4 3 3 3 4 3 2 3 2 3 3 3 6 7 8
3 3 3 3 3 4 4 4 4 3 3 3 4 4 4 3 3 3 3 3 4 4 6 5 6 6 6 5 5 5 5 3 2 2 3 2 2 2 2 2 5 7 7
3 3 3 3 3 4 5 5 4 2 2 4 4 4 3 4 5 4 3 3 4 4 5 6 7 7 7 7 5 3 2 2 2 2 2 3 2 1 1 2 3 5 6
3 3 3 3 3 4 4 4 3 1 2 3 3 4 5 5 5 5 4 4 5 5 3 3 3 4 4 5 6 6 5 4 2 3 3 3 2 1 1 2 1 1 2
Wind_Direction
198 199 203 206 203 191 194 210 224 226 228 223 215 208 211 207 206 203 211 207 209 209 206 204 202 203 206 206 206 209 209 207 202 202 205 203 203 202 200 200 200 199 199
188 187 195 198 198 196 199 201 213 220 221 216 219 213 205 208 209 204 208 212 212 208 208 209 207 207 208 207 207 208 207 204 201 202 203 202 203 203 203 201 199 200 200
181 180 182 189 199 196 198 195 215 213 220 216 219 217 207 210 209 208 209 209 212 214 213 211 211 210 210 207 208 209 207 203 201 202 200 196 199 202 204 203 203 203 204
174 168 172 187 191 186 187 186 200 199 214 209 217 223 218 215 213 212 212 213 208 213 214 210 213 212 211 208 209 206 200 198 198 198 198 198 201 205 205 203 204 205 205
176 165 177 187 171 168 188 197 182 171 187 205 216 222 223 219 217 218 214 211 208 204 206 208 209 207 207 204 201 199 194 193 197 202 203 205 207 208 207 207 208 210 208
172 163 169 178 164 156 172 188 177 167 181 196 224 251 250 235 221 220 219 211 204 204 204 207 204 203 203 200 199 197 196 197 199 202 205 208 211 212 209 208 209 213 214
161 153 162 169 168 171 181 173 163 171 208 155 93 349 325 284 244 241 224 203 199 204 199 198 194 194 194 198 199 198 201 204 204 205 207 211 216 219 216 214 215 218 220
171 166 160 166 171 166 169 179 164 160 219 162 143 93 355 344 325 281 229 191 191 187 187 194 187 184 190 187 189 194 199 204 205 207 210 215 219 221 220 221 223 224 225
174 169 166 171 179 169 180 194 178 167 194 242 160 150 156 232 308 328 337 159 171 171 184 183 185 189 187 186 187 195 201 207 212 217 216 218 221 222 221 224 226 226 228
184 171 167 174 180 181 184 198 182 175 164 210 263 217 176 165 158 321 348 360 182 180 193 194 192 191 184 183 190 195 201 205 208 218 222 225 229 226 227 230 233 232 233
214 191 181 180 182 180 185 193 177 179 173 181 192 193 168 77 123 156 265 319 338 262 213 207 194 189 185 184 193 199 204 207 209 218 226 229 229 232 235 236 238 240 239
249 221 183 178 187 177 176 181 176 178 190 186 188 174 160 158 184 169 197 241 261 272 253 221 197 197 199 196 202 202 204 207 211 217 225 230 232 236 240 241 241 242 244
226 231 188 178 185 185 185 185 181 197 192 188 200 204 190 192 170 160 160 194 235 282 292 261 225 205 206 199 205 203 208 212 214 217 222 226 230 235 238 241 244 246 250
213 217 184 182 194 193 195 189 190 213 196 200 211 199 194 205 177 168 167 161 163 313 291 261 262 220 208 197 207 203 212 215 216 215 215 215 217 223 228 236 247 249 251
199 180 173 183 199 204 204 183 197 218 205 207 214 209 207 214 189 187 176 166 166 200 262 254 242 243 214 200 209 203 209 217 216 215 213 214 217 221 223 230 238 239 240
193 167 181 198 209 216 205 185 199 215 198 226 214 198 217 214 201 196 189 180 176 180 228 246 227 231 219 216 206 205 218 222 223 220 220 220 222 222 226 226 228 232 235
182 192 198 197 207 221 215 197 211 211 207 227 226 204 228 213 205 214 196 189 193 173 214 262 239 230 196 222 223 217 217 219 230 227 223 219 217 221 225 227 228 230 230
210 210 202 205 221 221 217 211 224 223 210 213 218 205 232 226 217 210 191 202 211 202 190 239 262 238 217 215 213 215 223 220 224 229 222 219 220 223 227 230 229 229 229
210 225 212 224 238 226 221 224 223 226 219 220 215 206 216 210 230 225 203 208 217 221 196 205 244 234 229 219 196 242 231 242 235 222 217 223 224 226 229 229 226 229 231
197 214 226 234 236 232 228 231 229 228 229 232 224 216 216 209 218 218 217 216 208 206 212 209 232 238 235 230 166 220 249 245 246 234 223 217 223 225 227 226 230 230 228
215 217 225 238 242 235 236 233 237 237 232 236 235 230 229 224 219 214 210 207 204 206 211 218 234 232 236 217 221 216 224 247 258 231 214 233 225 233 237 235 235 233 229
230 225 228 232 239 250 252 239 226 238 237 233 236 240 236 228 232 226 222 215 205 206 211 216 227 225 236 226 211 206 199 194 257 236 187 241 207 229 237 228 229 229 231
233 239 238 233 238 249 247 245 241 227 231 231 227 230 234 235 223 235 243 242 240 235 219 210 219 227 225 219 199 206 210 209 226 220 177 239 232 238 239 239 233 235 238
229 237 240 236 236 246 239 239 239 231 235 241 232 222 222 237 236 225 234 241 243 242 234 222 222 231 229 217 202 204 207 213 254 244 177 207 231 239 251 250 243 233 235
236 240 239 233 233 248 238 235 224 232 252 260 252 235 224 227 238 220 208 232 256 265 253 237 232 235 237 231 208 175 178 172 244 255 207 188 209 229 267 261 251 236 234
233 242 251 243 232 245 250 239 216 221 253 265 267 256 242 231 228 211 206 218 242 254 259 269 262 263 251 243 218 196 190 187 203 238 219 179 196 166 267 277 265 256 245